Weather History for Antigo, WI

Change the Weather History Date:

Friday, November 30, 2012

  Actual Average Record
Temperature  
Mean Temperature 26 °F -  
Max Temperature 30 °F 32 °F 59 °F (1998)
Min Temperature 22 °F 14 °F -14 °F (1976)
Degree Days  
Heating Degree Days 40    
Moisture  
Dew Point 25 °F    
Average Humidity 96    
Maximum Humidity 100    
Minimum Humidity 88    
Precipitation  
Precipitation 0.00 in - - ()
Sea Level Pressure  
Sea Level Pressure 30.18 in    
Wind  
Wind Speed 10 mph (East)    
Max Wind Speed 14 mph    
Max Gust Speed 20 mph    
Visibility 5 miles    
Events Fog    
Averages and records for this station are not official NWS values.
T = Trace of Precipitation, MM = Missing Value Source: NWS Daily Summary

Daily Weather History Graph

Daily Weather History Graph

Search for Another Location

Airport:

Trip Planner

Search our weather history database for the weather conditions in past years. The results will help you decide how hot, cold, wet, or windy it might be!

Date:

Astronomy

Nov. 30, 2012 Rise Set
Actual Time 7:14 AM CST 4:16 PM CST
Civil Twilight 6:41 AM CST 4:49 PM CST
Nautical Twilight 6:04 AM CST 5:25 PM CST
Astronomical Twilight 5:29 AM CST 6:01 PM CST
Moon 6:11 PM CST (11/30) 8:46 AM CST (11/30)
Length of Visible Light 10h 08m
Length of Day
9h 01m
Waning Gibbous, 96% of the Moon is Illuminated
Nov 30
Waning Gibbous
Dec 6
Last Quarter
Dec 13
New
Dec 19
First Quarter
Dec 28
Full

Hourly Weather History & Observations

Time (CST) Temp. Windchill Dew Point Humidity Pressure Visibility Wind Dir Wind Speed Gust Speed Precip Events Conditions
12:15 AM 23.7 °F 14.0 °F 22.8 °F 96% 30.19 in 4.0 mi East 9.2 mph - N/A   Overcast
12:35 AM 23.5 °F 12.4 °F 22.6 °F 96% 30.18 in 4.0 mi East 11.5 mph - N/A   Overcast
12:55 AM 23.4 °F 12.2 °F 22.5 °F 96% 30.17 in 5.0 mi East 11.5 mph - N/A   Overcast
1:15 AM 23.0 °F 10.6 °F 22.5 °F 98% 30.18 in 5.0 mi East 13.8 mph - N/A   Overcast
1:35 AM 23.0 °F 11.1 °F 22.1 °F 96% 30.18 in 7.0 mi East 12.7 mph 16.1 mph N/A   Overcast
1:55 AM 23.0 °F 11.1 °F 22.1 °F 96% 30.18 in 10.0 mi East 12.7 mph 17.3 mph N/A   Overcast
2:15 AM 23.0 °F 11.7 °F 21.9 °F 96% 30.18 in 10.0 mi ENE 11.5 mph 18.4 mph N/A   Overcast
2:35 AM 22.8 °F 10.9 °F 21.6 °F 95% 30.17 in 10.0 mi East 12.7 mph 16.1 mph N/A   Overcast
2:55 AM 22.6 °F 10.7 °F 21.2 °F 94% 30.16 in 10.0 mi East 12.7 mph 19.6 mph N/A   Overcast
3:15 AM 22.6 °F 11.3 °F 21.2 °F 94% 30.17 in 10.0 mi East 11.5 mph 19.6 mph N/A   Overcast
3:35 AM 22.8 °F 10.9 °F 21.0 °F 93% 30.17 in 10.0 mi ENE 12.7 mph 19.6 mph N/A   Overcast
3:55 AM 22.8 °F 10.9 °F 20.8 °F 92% 30.17 in 10.0 mi ENE 12.7 mph - N/A   Overcast
4:15 AM 22.6 °F 10.7 °F 20.3 °F 91% 30.16 in 10.0 mi East 12.7 mph - N/A   Overcast
4:35 AM 22.6 °F 10.1 °F 20.1 °F 90% 30.16 in 10.0 mi East 13.8 mph 18.4 mph N/A   Overcast
4:55 AM 22.8 °F 10.4 °F 19.9 °F 89% 30.15 in 10.0 mi East 13.8 mph 19.6 mph N/A   Overcast
5:15 AM 23.0 °F 13.1 °F 19.9 °F 88% 30.17 in 10.0 mi ENE 9.2 mph - N/A   Overcast
5:35 AM 23.0 °F 12.4 °F 20.1 °F 89% 30.17 in 10.0 mi ENE 10.4 mph - N/A   Overcast
5:55 AM 23.0 °F 11.1 °F 20.1 °F 89% 30.17 in 10.0 mi ENE 12.7 mph - N/A   Overcast
6:15 AM 23.2 °F 12.6 °F 20.1 °F 88% 30.18 in 10.0 mi ENE 10.4 mph - N/A   Overcast
6:35 AM 23.0 °F 12.4 °F 20.3 °F 89% 30.19 in 10.0 mi ENE 10.4 mph - N/A   Overcast
6:55 AM 23.0 °F 11.7 °F 20.8 °F 91% 30.18 in 10.0 mi ENE 11.5 mph - N/A   Overcast
7:15 AM 23.0 °F 11.1 °F 20.3 °F 89% 30.19 in 10.0 mi ENE 12.7 mph - N/A   Overcast
7:35 AM 23.0 °F 11.7 °F 21.2 °F 93% 30.20 in 10.0 mi ENE 11.5 mph - N/A   Overcast
7:55 AM 23.4 °F 12.8 °F 21.7 °F 94% 30.20 in 10.0 mi ENE 10.4 mph - N/A   Overcast
8:15 AM 23.7 °F 13.3 °F 21.7 °F 92% 30.20 in 10.0 mi ENE 10.4 mph - N/A   Overcast
8:35 AM 23.9 °F 15.0 °F 22.1 °F 93% 30.20 in 10.0 mi ENE 8.1 mph - N/A   Overcast
8:55 AM 24.1 °F 14.4 °F 22.3 °F 93% 30.20 in 7.0 mi ENE 9.2 mph - N/A   Overcast
9:15 AM 24.4 °F 14.9 °F 22.8 °F 94% 30.21 in 3.0 mi ENE 9.2 mph - N/A   Overcast
9:35 AM 24.8 °F 15.3 °F 23.0 °F 93% 30.20 in 4.0 mi East 9.2 mph - N/A   Overcast
9:55 AM 25.5 °F 14.9 °F 23.5 °F 92% 30.20 in 5.0 mi East 11.5 mph - N/A   Overcast
10:15 AM 26.1 °F 17.6 °F 24.3 °F 93% 30.20 in 10.0 mi East 8.1 mph - N/A   Overcast
10:35 AM 26.2 °F 17.1 °F 24.4 °F 93% 30.20 in 10.0 mi East 9.2 mph - N/A   Overcast
10:55 AM 26.4 °F 16.6 °F 24.8 °F 94% 30.17 in 10.0 mi East 10.4 mph 16.1 mph N/A   Overcast
11:15 AM 26.6 °F 16.8 °F 25.2 °F 94% 30.18 in 10.0 mi ENE 10.4 mph - N/A   Overcast
11:35 AM 27.0 °F 17.3 °F 25.7 °F 95% 30.19 in 7.0 mi ENE 10.4 mph - N/A   Overcast
11:55 AM 27.0 °F 18.0 °F 25.7 °F 95% 30.18 in 7.0 mi ENE 9.2 mph - N/A   Overcast
12:15 PM 27.3 °F 19.1 °F 26.1 °F 95% 30.17 in 7.0 mi East 8.1 mph - N/A   Overcast
12:35 PM 27.1 °F 20.7 °F 26.2 °F 96% 30.18 in 5.0 mi ENE 5.8 mph - N/A   Overcast
12:55 PM 27.1 °F 18.9 °F 26.4 °F 97% 30.17 in 4.0 mi East 8.1 mph - N/A   Overcast
1:15 PM 27.1 °F 17.5 °F 26.4 °F 97% 30.17 in 2.5 mi East 10.4 mph - N/A   Overcast
1:35 PM 27.1 °F 18.9 °F 26.6 °F 98% 30.18 in 3.0 mi East 8.1 mph - N/A   Overcast
1:55 PM 27.1 °F 20.7 °F 26.6 °F 98% 30.18 in 1.2 mi East 5.8 mph - N/A   Overcast
2:15 PM 27.1 °F 21.8 °F 27.0 °F 99% 30.18 in 1.0 mi East 4.6 mph - N/A   Overcast
2:35 PM 27.3 °F 19.9 °F 27.1 °F 99% 30.18 in 0.8 mi East 6.9 mph - N/A   Overcast
2:55 PM 27.5 °F 20.2 °F 27.5 °F 100% 30.19 in 0.8 mi ENE 6.9 mph - N/A   Overcast
3:15 PM 27.5 °F 20.2 °F 27.5 °F 100% 30.18 in 0.5 mi East 6.9 mph - N/A Fog Light Freezing Fog
3:35 PM 27.3 °F 18.4 °F 27.3 °F 100% 30.18 in 0.5 mi East 9.2 mph - N/A Fog Light Freezing Fog
3:55 PM 27.3 °F 19.9 °F 27.3 °F 100% 30.18 in 0.5 mi East 6.9 mph - N/A Fog Light Freezing Fog
4:15 PM 27.5 °F 20.2 °F 27.5 °F 100% 30.20 in 0.8 mi ENE 6.9 mph - N/A   Overcast
4:35 PM 27.5 °F 21.1 °F 27.5 °F 100% 30.21 in 1.0 mi ENE 5.8 mph - N/A   Overcast
4:55 PM 27.5 °F 21.1 °F 27.5 °F 100% 30.21 in 0.8 mi East 5.8 mph - N/A   Overcast
5:15 PM 27.5 °F 19.3 °F 27.5 °F 100% 30.19 in 0.8 mi East 8.1 mph - N/A   Overcast
5:35 PM 27.9 °F 17.8 °F 27.9 °F 100% 30.20 in 0.8 mi East 11.5 mph - N/A   Overcast
5:55 PM 27.9 °F 20.6 °F 27.9 °F 100% 30.19 in 1.0 mi East 6.9 mph - N/A   Overcast
6:15 PM 28.0 °F 18.6 °F 28.0 °F 100% 30.19 in 1.0 mi ESE 10.4 mph - N/A   Overcast
6:35 PM 28.4 °F 19.1 °F 28.4 °F 100% 30.18 in 1.0 mi East 10.4 mph - N/A   Overcast
6:55 PM 28.4 °F 21.2 °F 28.4 °F 100% 30.18 in 1.0 mi ESE 6.9 mph - N/A   Overcast
7:15 PM 28.4 °F 21.2 °F 28.4 °F 100% 30.17 in 1.0 mi ESE 6.9 mph - N/A   Overcast
7:35 PM 28.4 °F 17.5 °F 28.4 °F 100% 30.15 in 1.0 mi ESE 13.8 mph - N/A   Overcast
7:55 PM 28.4 °F 17.5 °F 28.4 °F 100% 30.15 in 1.2 mi ESE 13.8 mph - N/A   Overcast
8:15 PM 28.4 °F 18.0 °F 28.4 °F 100% 30.16 in 1.5 mi SE 12.7 mph - N/A   Overcast
8:35 PM 28.6 °F 17.7 °F 28.4 °F 99% 30.16 in 3.0 mi ESE 13.8 mph 17.3 mph N/A   Overcast
8:55 PM 28.8 °F 19.0 °F 28.4 °F 99% 30.16 in 3.0 mi SE 11.5 mph - N/A   Overcast
9:15 PM 28.9 °F 20.4 °F 28.9 °F 100% 30.17 in 2.5 mi SE 9.2 mph - N/A   Overcast
9:35 PM 28.9 °F 21.1 °F 28.9 °F 100% 30.17 in 2.5 mi SE 8.1 mph - N/A   Overcast
9:55 PM 29.1 °F 21.3 °F 29.1 °F 100% 30.17 in 2.0 mi SE 8.1 mph - N/A   Overcast
10:15 PM 29.1 °F 22.1 °F 29.1 °F 100% 30.18 in 2.0 mi SE 6.9 mph - N/A   Overcast
10:35 PM 29.3 °F 22.3 °F 29.3 °F 100% 30.17 in 1.5 mi SE 6.9 mph - N/A   Overcast
10:55 PM 29.5 °F 22.5 °F 29.5 °F 100% 30.17 in 1.2 mi ESE 6.9 mph - N/A   Overcast
11:15 PM 29.7 °F 24.7 °F 29.7 °F 100% 30.17 in 1.2 mi SE 4.6 mph - N/A   Overcast
11:35 PM 29.8 °F 23.0 °F 29.8 °F 100% 30.17 in 1.2 mi SE 6.9 mph - N/A   Overcast
11:55 PM 30.0 °F 22.4 °F 30.0 °F 100% 30.15 in 1.2 mi ESE 8.1 mph - N/A   Overcast